N1GUJ Weather Reports


time (UTC)temp
C
wind
direction
speed
KPH
gust
KPH
rain 1hr
cm
rain 24hr
cm
rain mn
cm
humidity
%
barometer
mb
20260506202412 6 16 0.0 6.4 0.00 0.00 0.00 92 1006.3
20260506201912 6 352 0.0 4.8 0.00 0.00 0.00 92 1006.3
20260506201415 6 353 0.0 4.8 0.00 0.00 0.00 92 1006.2
20260506200918 6 353 0.0 1.6 0.00 0.00 0.00 92 1006.2
20260506200416 6 353 0.0 3.2 0.00 0.00 0.00 92 1006.2
20260506195912 6 353 3.2 6.4 0.00 0.00 0.00 92 1006.2
20260506195415 6 355 0.0 3.2 0.00 0.00 0.00 92 1006.0
20260506194912 6 355 0.0 3.2 0.00 0.00 0.00 92 1006.0
20260506194415 6 355 0.0 3.2 0.00 0.00 0.00 92 1006.0
20260506193915 6 355 0.0 3.2 0.00 0.00 0.00 92 1006.0
20260506193412 6 354 0.0 1.6 0.00 0.00 0.00 92 1006.0
20260506192913 6 354 0.0 4.8 0.00 0.00 0.00 92 1005.9
20260506192412 6 357 0.0 3.2 0.00 0.00 0.00 92 1005.8
20260506191913 6 356 1.6 3.2 0.00 0.00 0.00 93 1005.8
20260506191412 6 356 0.0 0.0 0.00 0.00 0.00 93 1005.8
20260506190916 6 356 0.0 1.6 0.00 0.00 0.00 92 1005.7
20260506190412 5 356 0.0 3.2 0.00 0.00 0.00 92 1005.8
20260506185915 5 356 0.0 0.0 0.00 0.00 0.00 92 1005.9
20260506185418 5 356 0.0 4.8 0.00 0.00 0.00 92 1006.0
20260506184912 5 356 0.0 1.6 0.00 0.00 0.00 92 1006.0
20260506184413 5 357 0.0 1.6 0.00 0.00 0.00 92 1006.2
20260506183915 5 357 0.0 6.4 0.00 0.00 0.00 92 1006.3
20260506183418 5 355 0.0 3.2 0.00 0.00 0.00 92 1006.4
20260506182915 5 355 0.0 3.2 0.00 0.00 0.00 92 1006.5
20260506182418 5 355 0.0 3.2 0.00 0.00 0.00 92 1006.4
20260506181918 5 355 1.6 1.6 0.00 0.00 0.00 92 1006.5
20260506181415 5 355 0.0 1.6 0.00 0.00 0.00 92 1006.6
20260506180917 5 355 0.0 4.8 0.00 0.00 0.00 92 1006.7
20260506180415 5 355 0.0 0.0 0.00 0.00 0.00 92 1006.6
20260506175912 5 355 0.0 1.6 0.00 0.00 0.00 92 1006.7
20260506175413 5 355 1.6 3.2 0.00 0.00 0.00 92 1006.6
20260506174912 5 355 0.0 3.2 0.00 0.00 0.00 92 1006.8
20260506174412 5 355 0.0 3.2 0.00 0.00 0.00 92 1006.9
20260506173915 5 355 0.0 1.6 0.00 0.00 0.00 93 1006.8
20260506173417 5 355 0.0 1.6 0.00 0.00 0.00 92 1006.9
20260506172912 5 355 1.6 1.6 0.00 0.00 0.00 92 1006.9
20260506172418 5 355 0.0 0.0 0.00 0.00 0.00 92 1007.1
20260506171913 5 355 0.0 3.2 0.00 0.00 0.00 92 1007.0
20260506171421 5 355 0.0 3.2 0.00 0.00 0.00 92 1006.9
20260506170917 5 355 0.0 4.8 0.00 0.00 0.00 92 1007.0
20260506170412 5 355 0.0 1.6 0.00 0.00 0.00 92 1006.7
20260506165911 5 355 0.0 3.2 0.00 0.00 0.00 92 1006.8
20260506165414 5 356 0.0 3.2 0.00 0.00 0.00 92 1007.1
20260506164914 5 356 0.0 3.2 0.00 0.00 0.00 92 1007.0
20260506164417 5 356 0.0 1.6 0.00 0.00 0.00 92 1007.1
20260506163911 5 356 0.0 3.2 0.00 0.00 0.00 92 1007.1
20260506163414 5 356 0.0 1.6 0.00 0.00 0.00 92 1007.2
20260506162914 5 356 0.0 3.2 0.00 0.00 0.00 92 1007.2
20260506162414 5 356 0.0 3.2 0.00 0.00 0.00 92 1007.3
20260506161911 5 356 0.0 4.8 0.00 0.00 0.00 92 1007.4
20260506161414 5 4 0.0 1.6 0.00 0.00 0.00 92 1007.4
20260506160911 5 4 1.6 1.6 0.00 0.00 0.00 92 1007.4
20260506160414 5 4 0.0 3.2 0.00 0.00 0.00 92 1007.4
20260506155917 5 4 0.0 3.2 0.00 0.00 0.00 92 1007.4
20260506155411 5 4 0.0 4.8 0.00 0.00 0.00 92 1007.5
20260506154914 5 1 1.6 4.8 0.00 0.00 0.00 92 1007.6
20260506154411 5 18 0.0 4.8 0.00 0.00 0.00 92 1007.6
20260506153911 5 333 0.0 4.8 0.00 0.00 0.00 92 1007.5
20260506153414 5 333 0.0 3.2 0.00 0.00 0.00 92 1007.3
20260506152918 5 333 0.0 3.2 0.00 0.00 0.00 91 1007.5
20260506152411 5 334 0.0 8.0 0.00 0.00 0.00 91 1007.6
20260506151914 5 358 0.0 1.6 0.00 0.00 0.00 92 1007.3
20260506151411 5 359 0.0 3.2 0.00 0.00 0.00 91 1007.4
20260506150917 5 359 0.0 0.0 0.00 0.00 0.00 92 1007.3
20260506150411 5 359 0.0 1.6 0.00 0.00 0.00 92 1007.2
20260506145911 5 16 0.0 0.0 0.00 0.00 0.00 92 1007.2
20260506145411 5 15 0.0 4.8 0.00 0.00 0.00 92 1007.2
20260506144914 5 323 0.0 0.0 0.00 0.00 0.00 92 1007.2
20260506144417 5 323 0.0 1.6 0.00 0.00 0.00 92 1007.3
20260506143918 5 323 0.0 0.0 0.00 0.00 0.00 92 1007.2
20260506143418 5 323 0.0 0.0 0.00 0.00 0.00 92 1007.2
20260506142911 5 323 0.0 0.0 0.00 0.00 0.00 92 1007.2
20260506142411 5 323 0.0 0.0 0.00 0.00 0.00 92 1007.4
20260506141911 5 323 0.0 0.0 0.00 0.00 0.00 92 1007.5
20260506141411 5 323 0.0 1.6 0.00 0.00 0.00 92 1007.6
20260506140914 5 323 0.0 0.0 0.00 0.00 0.00 92 1007.4
20260506140411 5 323 0.0 0.0 0.00 0.00 0.00 92 1007.4
20260506135914 5 323 0.0 3.2 0.00 0.00 0.00 91 1007.4
20260506135411 5 323 0.0 3.2 0.00 0.00 0.00 92 1007.4
20260506134910 5 323 0.0 1.6 0.00 0.00 0.00 91 1007.2
20260506134417 5 323 0.0 4.8 0.00 0.00 0.00 91 1007.2
20260506133911 5 324 0.0 6.4 0.00 0.00 0.00 91 1007.2
20260506133414 5 322 3.2 4.8 0.00 0.00 0.00 91 1007.4
20260506132917 5 316 0.0 1.6 0.00 0.00 0.00 91 1007.5
20260506132410 5 316 0.0 3.2 0.00 0.00 0.00 91 1007.5
20260506131910 5 316 0.0 1.6 0.00 0.00 0.00 91 1007.5
20260506131414 5 316 0.0 1.6 0.00 0.00 0.00 91 1007.7
20260506130914 6 316 0.0 3.2 0.00 0.00 0.00 91 1007.8
20260506130410 6 311 1.6 3.2 0.00 0.00 0.00 91 1007.8
20260506125910 6 311 0.0 0.0 0.00 0.00 0.00 91 1008.0
20260506125410 6 311 0.0 1.6 0.00 0.00 0.00 91 1008.0
20260506124913 6 311 0.0 0.0 0.00 0.00 0.00 91 1008.1
20260506124417 6 311 0.0 0.0 0.00 0.00 0.00 91 1007.8
20260506123910 6 311 0.0 6.4 0.00 0.00 0.00 91 1007.9
20260506123410 6 316 0.0 8.0 0.00 0.00 0.00 91 1007.8
20260506122913 6 170 1.6 4.8 0.00 0.00 0.00 92 1007.7
20260506122414 6 170 0.0 1.6 0.00 0.00 0.00 91 1007.9
20260506121910 6 170 0.0 3.2 0.00 0.00 0.00 91 1008.1
20260506121419 6 170 0.0 0.0 0.00 0.00 0.00 92 1008.4
20260506120913 6 170 0.0 0.0 0.00 0.00 0.00 92 1008.2
20260506120410 6 170 0.0 0.0 0.00 0.00 0.00 91 1008.4
20260506115913 6 170 0.0 0.0 0.00 0.00 0.00 91 1008.4
20260506115413 6 170 0.0 0.0 0.00 0.00 0.00 91 1008.3
20260506114911 6 170 0.0 1.6 0.00 0.00 0.00 91 1008.2
20260506114410 6 170 0.0 0.0 0.00 0.00 0.00 91 1008.3
20260506113913 7 170 0.0 0.0 0.00 0.00 0.00 92 1008.6
20260506113410 7 170 0.0 0.0 0.00 0.00 0.00 92 1008.4
20260506112910 7 170 0.0 0.0 0.00 0.00 0.00 92 1008.6
20260506112410 7 170 0.0 0.0 0.00 0.00 0.00 92 1008.3
20260506111914 7 170 0.0 0.0 0.00 0.00 0.00 92 1008.0
20260506111411 7 170 0.0 0.0 0.00 0.00 0.00 92 1007.8
20260506110911 7 170 0.0 0.0 0.00 0.00 0.00 91 1007.5
20260506110416 7 170 0.0 0.0 0.00 0.00 0.00 91 1007.6
20260506105910 7 170 0.0 3.2 0.00 0.00 0.00 91 1007.5
20260506105410 7 170 0.0 0.0 0.00 0.00 0.00 91 1007.7
20260506104913 7 170 0.0 3.2 0.00 0.00 0.00 91 1007.8
20260506104410 7 170 0.0 1.6 0.00 0.00 0.00 91 1007.8
20260506103913 7 170 0.0 0.0 0.00 0.00 0.00 91 1007.8
20260506103416 7 171 0.0 0.0 0.00 0.00 0.00 91 1007.7
20260506102910 7 164 0.0 0.0 0.00 0.00 0.00 91 1007.7
20260506102412 7 164 0.0 0.0 0.00 0.00 0.00 92 1007.6
20260506101910 7 164 0.0 0.0 0.00 0.00 0.00 92 1007.8
20260506101412 7 164 0.0 0.0 0.00 0.00 0.00 92 1007.9
20260506100910 7 164 0.0 0.0 0.00 0.00 0.00 92 1007.7
20260506100410 7 164 0.0 0.0 0.00 0.00 0.00 92 1007.8
20260506095910 7 164 0.0 0.0 0.00 0.00 0.00 92 1007.8
20260506095409 7 164 0.0 3.2 0.00 0.00 0.00 92 1007.8
20260506094915 7 164 0.0 3.2 0.00 0.00 0.00 92 1007.1
20260506094413 7 164 0.0 0.0 0.00 0.00 0.00 92 1008.3
20260506093913 8 164 0.0 0.0 0.00 0.00 0.00 91 1008.0
20260506093413 8 164 0.0 0.0 0.00 0.00 0.00 91 1007.8
20260506092909 8 164 0.0 0.0 0.00 0.00 0.00 91 1008.0
20260506092416 8 164 0.0 3.2 0.00 0.00 0.00 91 1008.3
20260506091909 8 164 0.0 3.2 0.00 0.00 0.00 92 1008.0
20260506091416 8 164 0.0 0.0 0.00 0.00 0.00 92 1008.2
20260506090915 8 164 0.0 0.0 0.00 0.00 0.00 92 1008.5
20260506090413 8 164 0.0 0.0 0.00 0.00 0.00 91 1008.2
20260506085912 8 164 0.0 0.0 0.00 0.00 0.00 91 1008.0
20260506085412 8 164 0.0 0.0 0.00 0.00 0.00 91 1008.4
20260506084909 8 164 0.0 0.0 0.00 0.00 0.00 91 1008.2
20260506084409 8 164 0.0 0.0 0.00 0.00 0.00 91 1008.1
20260506083913 8 164 0.0 0.0 0.00 0.00 0.00 91 1008.2
20260506083409 8 164 0.0 0.0 0.00 0.00 0.00 91 1008.2
20260506082910 8 164 0.0 1.6 0.00 0.00 0.00 91 1008.1
20260506082412 8 164 1.6 1.6 0.00 0.00 0.00 91 1007.8
20260506081910 8 164 0.0 0.0 0.00 0.00 0.00 91 1008.5
20260506081413 9 164 0.0 0.0 0.00 0.00 0.00 91 1008.3
20260506080909 9 164 0.0 0.0 0.00 0.00 0.00 91 1008.2
20260506080409 9 164 0.0 0.0 0.00 0.00 0.00 92 1008.4
20260506073413 9 164 0.0 0.0 0.00 0.00 0.00 92 1007.7
20260506072910 10 164 0.0 0.0 0.00 0.00 0.00 92 1008.1
20260506072409 10 164 0.0 0.0 0.00 0.00 0.00 92 1008.0
20260506071909 10 164 0.0 0.0 0.00 0.00 0.00 92 1008.1
20260506071409 10 164 0.0 0.0 0.00 0.00 0.00 92 1008.0
20260506070909 10 164 0.0 0.0 0.00 0.00 0.00 91 1007.9
20260506070409 10 164 0.0 0.0 0.00 0.00 0.00 91 1007.9
20260506062412 10 164 0.0 0.0 0.00 0.00 0.00 91 1007.7
20260506061909 10 164 0.0 0.0 0.00 0.00 0.00 91 1007.9
20260506061412 10 164 0.0 0.0 0.00 0.00 0.00 91 1008.2
20260506060908 10 164 0.0 1.6 0.00 0.00 0.00 91 1008.2
20260506060412 10 164 1.6 1.6 0.00 0.00 0.00 91 1008.1
20260506051411 10 164 0.0 0.0 0.00 0.00 0.00 91 1008.2
20260506050911 10 164 0.0 0.0 0.00 0.00 0.00 90 1008.3
20260506050408 10 164 0.0 0.0 0.00 0.00 0.00 90 1008.2
20260506044911 10 164 0.0 0.0 0.00 0.00 0.00 90 1008.0
20260506044409 10 164 0.0 0.0 0.00 0.00 0.00 90 1007.6
20260506043908 10 164 0.0 0.0 0.00 0.00 0.00 90 1007.6
20260506043411 10 164 0.0 0.0 0.00 0.00 0.00 90 1007.2
20260506042908 10 164 0.0 0.0 0.00 0.00 0.00 89 1007.7
20260506042408 10 164 0.0 0.0 0.00 0.00 0.00 89 1007.3
20260506041915 10 164 0.0 0.0 0.00 0.00 0.00 89 1007.5
20260506041408 11 164 0.0 1.6 0.00 0.00 0.00 89 1007.7
20260506040911 11 164 0.0 0.0 0.00 0.00 0.00 89 1008.0
20260506040408 11 164 0.0 0.0 0.00 0.00 0.00 88 1008.1
20260506035914 11 164 0.0 0.0 0.00 0.00 0.00 88 1007.8
20260506035417 11 164 0.0 0.0 0.00 0.00 0.00 87 1007.6
20260506034911 11 164 0.0 1.6 0.00 0.00 0.00 87 1007.7
20260506034408 11 164 0.0 0.0 0.00 0.00 0.00 86 1007.6
20260506033911 11 164 0.0 1.6 0.00 0.00 0.00 85 1007.7
20260506033409 11 164 0.0 1.6 0.00 0.00 0.00 83 1007.3
20260506032908 12 164 0.0 0.0 0.00 0.00 0.00 81 1007.2
20260506032414 12 164 0.0 0.0 0.00 0.00 0.00 80 1007.4
20260506031908 12 164 0.0 1.6 0.00 0.00 0.00 77 1007.3
20260506031408 12 164 0.0 0.0 0.00 0.00 0.00 76 1007.3
20260506030908 13 164 0.0 0.0 0.00 0.00 0.00 75 1007.1
20260506030411 13 164 0.0 0.0 0.00 0.00 0.00 74 1007.1
20260506025912 13 164 0.0 0.0 0.00 0.00 0.00 73 1007.0
20260506025411 13 164 0.0 0.0 0.00 0.00 0.00 71 1006.9
20260506024908 13 164 0.0 1.6 0.00 0.00 0.00 70 1006.7
20260506024408 13 164 1.6 8.0 0.00 0.00 0.00 73 1006.7
20260506023911 13 321 0.0 3.2 0.00 0.00 0.00 74 1006.7
20260506023414 13 320 0.0 0.0 0.00 0.00 0.00 75 1006.6
20260506022911 13 320 0.0 4.8 0.00 0.00 0.00 76 1006.6
20260506022408 13 316 0.0 4.8 0.00 0.00 0.00 77 1006.5
20260506021908 13 347 3.2 6.4 0.00 0.00 0.00 78 1006.5
20260506021409 13 342 0.0 4.8 0.00 0.00 0.00 81 1006.3
20260506020907 13 341 0.0 9.7 0.00 0.00 0.00 83 1006.2
20260506020411 13 189 0.0 4.8 0.00 0.00 0.00 86 1006.2
20260506015908 13 189 0.0 1.6 0.00 0.00 0.00 86 1006.1
20260506015410 13 189 0.0 0.0 0.00 0.00 0.00 86 1006.1
20260506014911 13 189 0.0 0.0 0.00 0.00 0.00 86 1006.0
20260506014408 13 189 0.0 1.6 0.00 0.00 0.00 86 1005.9
20260506013909 13 189 0.0 1.6 0.00 0.00 0.00 86 1005.7
20260506013407 13 189 0.0 1.6 0.00 0.00 0.00 86 1005.6
20260506012908 13 189 0.0 0.0 0.00 0.00 0.00 86 1005.5
20260506012411 13 189 0.0 0.0 0.00 0.00 0.00 86 1005.3
20260506011912 14 189 0.0 0.0 0.00 0.00 0.00 86 1005.2
20260506011410 14 189 0.0 0.0 0.00 0.00 0.00 86 1005.1
20260506010907 14 189 0.0 1.6 0.00 0.00 0.00 85 1005.0
20260506010409 14 189 0.0 1.6 0.00 0.00 0.00 85 1004.9
20260506005911 14 189 0.0 1.6 0.00 0.00 0.00 84 1005.1
20260506005413 15 189 0.0 1.6 0.00 0.00 0.00 83 1005.1
20260506004908 15 189 0.0 12.9 0.00 0.00 0.00 82 1002.2
20260506004410 15 189 0.0 14.5 0.00 0.00 0.00 78 1002.2
20260506003907 15 189 0.0 12.9 0.00 0.00 0.00 78 1001.8
20260506003407 15 189 0.0 6.4 0.00 0.00 0.00 78 1001.8
20260506002913 15 189 0.0 6.4 0.00 0.00 0.00 78 1001.8
20260506002407 15 189 0.0 0.0 0.00 0.00 0.00 78 1001.6
20260506001913 15 189 0.0 6.4 0.00 0.00 0.00 78 1001.6
20260506001410 15 189 0.0 0.0 0.00 0.00 0.00 77 1001.5
20260506000913 15 189 0.0 0.0 0.00 0.00 0.00 77 1001.5
20260506000411 15 189 0.0 11.3 0.00 0.00 0.00 77 1001.5
20260505235910 15 189 0.0 0.0 0.00 0.00 0.00 77 1001.6
20260505235413 15 189 0.0 0.0 0.00 0.00 0.00 77 1001.6
20260505234913 15 189 0.0 0.0 0.00 0.00 0.00 78 1001.4
20260505234414 16 189 0.0 3.2 0.00 0.00 0.00 78 1001.3
20260505233907 16 189 0.0 8.0 0.00 0.00 0.00 78 1001.4
20260505233410 16 189 0.0 8.0 0.00 0.00 0.00 78 1001.5
20260505232913 16 189 0.0 3.2 0.00 0.00 0.00 78 1001.5
20260505232407 16 189 0.0 4.8 0.00 0.00 0.00 77 1001.4
20260505231907 16 189 0.0 1.6 0.00 0.00 0.00 77 1001.3
20260505231408 16 189 0.0 0.0 0.00 0.00 0.00 77 1001.0
20260505230913 16 189 0.0 0.0 0.00 0.00 0.00 77 1000.8
20260505230408 16 189 0.0 0.0 0.00 0.00 0.00 77 1000.8
20260505225907 16 189 0.0 3.2 0.00 0.00 0.00 78 1000.8
20260505225407 16 189 1.6 0.0 0.00 0.00 0.00 78 1000.8
20260505224907 16 189 1.6 1.6 0.00 0.00 0.00 78 1000.8
20260505224407 16 192 0.0 6.4 0.00 0.00 0.00 79 1000.9
20260505223907 16 192 0.0 12.9 0.00 0.00 0.00 79 1000.9
20260505223407 16 192 0.0 0.0 0.00 0.00 0.00 79 1000.9
20260505222907 16 192 0.0 0.0 0.00 0.00 0.00 80 1000.9
20260505222407 16 147 0.0 6.4 0.00 0.00 0.00 80 1001.0
20260505221907 16 144 0.0 8.0 0.00 0.00 0.00 80 1001.0